Regional Weather Roundup
Issued by NWS

Home | Current Version | Previous Version | Graphics & Text | Print | Product List | Glossary On
Versions: 1 2 3 4 5 6 7 8 9 10 11 12 13 14 15 16 17 18 19 20 21 22 23 24 25 26 27 28 29 30 31 32 33 34 35 36 37 38 39 40 41 42 43 44 45 46 47 48 49 50
000
ASUS45 KBOI 251810
RWRID
WEATHER ROUNDUP FOR IDAHO
NATIONAL WEATHER SERVICE BOISE ID
1100 AM MST SUN JAN 25 2015

NOTE: "FAIR" INDICATES FEW OR NO CLOUDS BELOW 12000 FEET
WITH NO SIGNIFICANT WEATHER AND/OR OBSTRUCTIONS TO VISIBILITY

IDZ012-014-251900-
SOUTHWEST IDAHO


CITY           SKY/WX    TMP DP  RH WIND       PRES   REMARKS
BOISE          MOSUNNY   36  31  82 CALM      30.48S
CALDWELL       CLOUDY    30  25  80 CALM      30.52S VSB 1/4
MOUNTAIN HOME  SUNNY     34  29  82 S3        30.48S
$$

IDZ016-017-251900-
SOUTHCENTRAL IDAHO


CITY           SKY/WX    TMP DP  RH WIND       PRES   REMARKS
BURLEY         PTSUNNY   40  31  70 N3        30.43F
JEROME         PTSUNNY   35  30  82 NE12      30.45R WCI  27
TWIN FALLS     PTSUNNY   39  33  79 E5        30.44R
$$

IDZ019>023-251900-
SOUTHEAST IDAHO


CITY           SKY/WX    TMP DP  RH WIND       PRES   REMARKS
IDAHO FALLS    CLOUDY    30  28  92 N7        30.47R FOG     WCI  23
POCATELLO      CLOUDY    34  31  88 N7        30.46R WCI  28
REXBURG        CLOUDY    28  28 100 CALM      30.45S FOG
$$

IDZ006-010-011-018-031-032-251900-
CENTRAL IDAHO MOUNTAINS


CITY           SKY/WX    TMP DP  RH WIND       PRES   REMARKS
MCCALL         FOG       33  33 100 S3        30.42R VSB 1/2
HAILEY         MOSUNNY   30  25  80 SE9       30.43R WCI  22
STANLEY          N/A     26  23  88 CALM      30.46S
SALMON         PTSUNNY   28  23  80 CALM      30.41S
CHALLIS        MOSUNNY   37  30  75 NE3       30.40R
$$

IDZ002-004-006-007-026-251900-
NORTHERN IDAHO


CITY           SKY/WX    TMP DP  RH WIND       PRES   REMARKS
LEWISTON       PTSUNNY   51  38  60 SE6       30.27F
LOWELL           N/A     39  36  89 N5        30.39S
COEUR D`ALENE  CLOUDY    45  43  93 S6        30.24R
MULLAN PASS    CLOUDY    38  35  89 VRB5      30.25R WCI  34
$$


USA.gov is the U.S. government's official web portal to all federal, state and local government web resources and services.